User: anonymous   Login
Location: Unspecified
(0.0000°N, 0.0000°E)
Time: 01:41:23
(UTC+00:00)
Language:

OPTUS D2 - Orbit

View from above orbital plane
View from above orbital plane
View from above satellite
View from above satellite

Ground track
Ground track

The orbit data is extracted from the following two-line orbital elements,

1 32252U 07044A   17326.47776971 -.00000178  00000-0  00000+0 0  9992
2 32252   0.0180 306.1903 0003377 285.8084 153.6857  1.00272535 37079
Epoch (UTC): 22 November 2017 11:27:59
Eccentricity: 0.0003377
inclination: 0.0180°
perigee height: 35772 km
apogee height: 35800 km
right ascension of ascending node: 306.1903°
argument of perigee: 285.8084°
revolutions per day: 1.00272535
mean anomaly at epoch: 153.6857°
orbit number at epoch: 3707

The dashed part of the orbit path shows where the satellite is in the earth's shadow,  

DLR